���t,����,�O�C���x,�����t���O,�O�C���Ύ��x,�����t���O,���ԉ��x,�����t���O,���ԑ��Ύ��x,�����t���O,�g�C������,�����t���O,�L�b�`�����x,�����t���O,��󒲎����x,�����t���O
2005/1/1,0:00,4.4,0,61,0,14.8,0,55.1,0,11.7,0,14.9,0,8.4,0
2005/1/1,0:15,4.4,0,61,0,14.5,0,52.6,0,12,0,15.4,0,8.6,0
2005/1/1,0:30,4.4,0,61,0,12.7,0,55.7,0,11.6,0,16,0,8.9,0
2005/1/1,0:45,4.4,0,61,0,10.8,0,54.3,0,11.7,0,16.4,0,9.2,0
2005/1/1,1:00,4.4,0,61,0,10.7,0,63.1,0,11.6,0,16.7,0,9.2,0
2005/1/1,1:15,4.2,0,61,0,10.4,0,65.9,0,11.6,0,16.4,0,9.1,0
2005/1/1,1:30,4.4,0,61,0,10.1,0,67.5,0,12.2,0,14.9,0,9.1,0
2005/1/1,1:45,4.4,0,61,0,9.8,0,68.5,0,12.1,0,14.5,0,9.1,0
2005/1/1,2:00,4.4,0,61,0,9.4,0,65,0,12.1,0,14.4,0,9.2,0
2005/1/1,2:15,4.2,0,61,0,9,0,64,0,12.1,0,14.2,0,9.2,0
2005/1/1,2:30,4,0,61,0,8.7,0,66.5,0,12,0,13.9,0,9.5,0
2005/1/1,2:45,4,0,61,0,10.1,0,67.7,0,12,0,13.4,0,9.4,0
2005/1/1,3:00,4.1,0,61,0,9.6,0,64.6,0,12,0,12.9,0,9.5,0
2005/1/1,3:15,4.1,0,62,0,9.2,0,66.9,0,12.6,0,12.5,0,9.8,0
2005/1/1,3:30,4.2,0,61,0,9.1,0,70.9,0,12.9,0,12.3,0,9.6,0
2005/1/1,3:45,4.3,0,61,0,8.8,0,71.8,0,12.9,0,12.8,0,9.6,0
2005/1/1,4:00,4.1,0,61,0,8.6,0,72.3,0,12.8,0,12.7,0,9.5,0
2005/1/1,4:15,4.1,0,61,0,8.5,0,73.7,0,12.8,0,12.6,0,9.8,0
2005/1/1,4:30,4,0,62,0,8.3,0,74.2,0,12.4,0,12.4,0,10.1,0
2005/1/1,4:45,4.1,0,61,0,8.1,0,74.8,0,12.4,0,12.2,0,9.9,0
2005/1/1,5:00,4.1,0,61,0,7.9,0,74.5,0,12.4,0,12.1,0,9.7,0
2005/1/1,5:15,4,0,62,0,7.8,0,73.9,0,12.3,0,11.9,0,9.5,0
2005/1/1,5:30,4,0,62,0,7.7,0,73.7,0,12.3,0,11.7,0,9.4,0
2005/1/1,5:45,4.1,0,61,0,7.5,0,73.5,0,12.3,0,11.6,0,9.3,0
2005/1/1,6:00,4,0,62,0,7.4,0,73.7,0,12.3,0,11.4,0,9.2,0
2005/1/1,6:15,3.2,0,62,0,7.4,0,72.8,0,12.3,0,11.2,0,9.1,0
2005/1/1,6:30,3,0,62,0,7.1,0,73.1,0,12.2,0,11,0,9.1,0
2005/1/1,6:45,3.1,0,62,0,6.7,0,74.6,0,12.2,0,10.8,0,9,0
2005/1/1,7:00,3.2,0,62,0,6.5,0,74.7,0,12.2,0,10.7,0,8.9,0
2005/1/1,7:15,3.3,0,62,0,6.5,0,74.9,0,12.1,0,10.5,0,8.8,0
2005/1/1,7:30,3.3,0,62,0,6.5,0,74,0,12.1,0,10.3,0,8.7,0
2005/1/1,7:45,3.1,0,62,0,6.5,0,73.8,0,12.1,0,10.1,0,8.6,0
2005/1/1,8:00,3.1,0,62,0,6.4,0,73.3,0,12.1,0,9.9,0,8.5,0
2005/1/1,8:15,2.9,0,62,0,6.3,0,74.1,0,12,0,9.8,0,8.5,0
2005/1/1,8:30,2.9,0,62,0,6.2,0,73.9,0,12,0,9.7,0,8.4,0
2005/1/1,8:45,3,0,62,0,6,0,74.3,0,12,0,9.5,0,8.4,0
2005/1/1,9:00,2.9,0,62,0,6,0,74,0,12,0,9.4,0,8.3,0
2005/1/1,9:15,2.8,0,62,0,6,0,73.6,0,11.9,0,9.3,0,8.2,0
2005/1/1,9:30,2.9,0,62,0,5.8,0,73.7,0,11.9,0,9.3,0,8.1,0
2005/1/1,9:45,3,0,62,0,5.6,0,74.4,0,11.9,0,9.2,0,8.1,0
2005/1/1,10:00,3,0,62,0,5.5,0,74.6,0,11.8,0,9.1,0,8,0
2005/1/1,10:15,3.2,0,62,0,5.7,0,73.8,0,11.8,0,9,0,8,0
2005/1/1,10:30,3.2,0,62,0,5.5,0,79,0,11.8,0,8.8,0,7.9,0
2005/1/1,10:45,3.3,0,62,0,6.8,0,81.2,0,11.8,0,8.7,0,7.9,0
2005/1/1,11:00,3.5,0,62,0,8.2,0,79.7,0,11.7,0,8.6,0,7.9,0
2005/1/1,11:15,3.4,0,62,0,9.1,0,75.6,0,11.1,0,8.7,0,7.9,0
2005/1/1,11:30,3.5,0,62,0,9.8,0,74.3,0,11.1,0,8.8,0,7.9,0
2005/1/1,11:45,3.5,0,62,0,9.6,0,75.5,0,11,0,9.8,0,7.9,0
2005/1/1,12:00,3.4,0,62,0,9.5,0,74.6,0,11,0,10.8,0,7.9,0
2005/1/1,12:15,3.1,0,62,0,9.7,0,75.7,0,11,0,11.7,0,7.9,0
2005/1/1,12:30,2.8,0,62,0,9.7,0,75.8,0,11.7,0,11.9,0,7.9,0
2005/1/1,12:45,2.7,0,62,0,10,0,75.9,0,11.6,0,11.8,0,7.8,0
2005/1/1,13:00,2.6,0,62,0,10.4,0,74.6,0,11.6,0,12.4,0,7.7,0
2005/1/1,13:15,3.1,0,62,0,10.3,0,74.4,0,11.5,0,12.5,0,7.7,0
2005/1/1,13:30,3.3,0,62,0,10.7,0,72.6,0,11.4,0,12.7,0,7.6,0
2005/1/1,13:45,3.8,0,62,0,11.1,0,69.6,0,12.1,0,12.9,0,7.7,0
2005/1/1,14:00,4.3,0,61,0,11.5,0,67.6,0,12.1,0,13,0,8,0
2005/1/1,14:15,4.8,0,61,0,12.1,0,65.5,0,12,0,13.2,0,7.9,0
2005/1/1,14:30,4.8,0,61,0,12.5,0,61.9,0,12,0,13.3,0,7.8,0
2005/1/1,14:45,5.2,0,61,0,12.5,0,61.8,0,12,0,13.4,0,7.8,0
2005/1/1,15:00,5.3,0,61,0,12.5,0,62.7,0,11.9,0,13.7,0,7.8,0
2005/1/1,15:15,5.3,0,61,0,12.8,0,62.3,0,11.7,0,13.8,0,7.9,0
2005/1/1,15:30,5.2,0,61,0,11.7,0,57.8,0,13.2,0,13.7,0,8.4,0
2005/1/1,15:45,5,0,61,0,10.8,0,59.6,0,13.1,0,13.8,0,8.5,0
2005/1/1,16:00,5,0,61,0,10,0,60.8,0,13.1,0,14.5,0,8.5,0
2005/1/1,16:15,5.3,0,61,0,12.2,0,56.1,0,13.1,0,14.2,0,8.7,0
2005/1/1,16:30,5.1,0,61,0,12.8,0,53.4,0,12.3,0,13.5,0,8.8,0
2005/1/1,16:45,5,0,61,0,14,0,53.2,0,12.1,0,12.9,0,8.8,0
2005/1/1,17:00,4.9,0,61,0,13.7,0,53.7,0,12.1,0,13,0,9.1,0
2005/1/1,17:15,4.8,0,61,0,12.5,0,57.9,0,12.1,0,13.4,0,9.3,0
2005/1/1,17:30,4.7,0,61,0,12.2,0,62.1,0,12.1,0,13.7,0,9.1,0
2005/1/1,17:45,4.4,0,61,0,12.2,0,65.9,0,12.1,0,14.2,0,9.1,0
2005/1/1,18:00,4.5,0,61,0,12,0,65.2,0,12.1,0,13.9,0,9,0
2005/1/1,18:15,4.5,0,61,0,11.7,0,66.5,0,12.5,0,14.4,0,8.8,0
2005/1/1,18:30,4.6,0,61,0,11.6,0,64.9,0,12.5,0,16.2,0,8.7,0
2005/1/1,18:45,4.6,0,61,0,11.8,0,63.9,0,12.5,0,15.4,0,8.6,0
2005/1/1,19:00,4.7,0,61,0,13.8,0,59.3,0,12.7,0,15.1,0,8.5,0
2005/1/1,19:15,4.8,0,61,0,14.5,0,55.9,0,12.6,0,15.1,0,8.5,0
2005/1/1,19:30,4.7,0,61,0,14.7,0,55,0,12.5,0,14.9,0,8.4,0
2005/1/1,19:45,4.7,0,61,0,14.8,0,53.5,0,12.1,0,15,0,8.4,0
2005/1/1,20:00,4.8,0,61,0,15,0,54.4,0,12.7,0,15.7,0,8.3,0
2005/1/1,20:15,5,0,61,0,14.4,0,56,0,12.7,0,15.8,0,8.3,0
2005/1/1,20:30,4.9,0,61,0,13.6,0,57.8,0,12.1,0,15.9,0,8.3,0
2005/1/1,20:45,4.8,0,61,0,13.3,0,57.7,0,13.6,0,16.1,0,8.3,0
2005/1/1,21:00,4.8,0,61,0,12.9,0,58.9,0,13.5,0,16.2,0,8.2,0
2005/1/1,21:15,4.8,0,61,0,12.6,0,59.5,0,13.5,0,15.7,0,8.2,0
2005/1/1,21:30,4.8,0,61,0,12.4,0,60.7,0,13.4,0,15.4,0,8.2,0
2005/1/1,21:45,4.8,0,61,0,12.4,0,61.1,0,12.3,0,15.2,0,8.1,0
2005/1/1,22:00,4.7,0,61,0,12.3,0,60.3,0,12.2,0,14.9,0,8.1,0
2005/1/1,22:15,4.6,0,61,0,11.9,0,58.5,0,13,0,14.8,0,8.2,0
2005/1/1,22:30,4.4,0,61,0,11.6,0,59.1,0,12.9,0,14.7,0,8.2,0
2005/1/1,22:45,4.5,0,61,0,11.5,0,63.3,0,12.9,0,14.5,0,8.3,0
2005/1/1,23:00,4.5,0,61,0,11.5,0,61.7,0,12.8,0,14.3,0,8.3,0
2005/1/1,23:15,4.4,0,61,0,11.5,0,61.9,0,13.1,0,14.2,0,8.4,0
2005/1/1,23:30,4.4,0,61,0,11.5,0,62.4,0,13.3,0,14.2,0,8.6,0
2005/1/1,23:45,4.4,0,61,0,11.2,0,64.2,0,13.3,0,14.1,0,8.6,0
2005/1/2,0:00,4.3,0,61,0,11.2,0,67.4,0,13.3,0,14,0,8.8,0
2005/1/2,0:15,4,0,61,0,11.2,0,66.6,0,13.2,0,13.9,0,9.1,0
2005/1/2,0:30,3.3,0,62,0,10.5,0,59.1,0,13.2,0,13.8,0,9.6,0
2005/1/2,0:45,2.9,0,62,0,11.2,0,64.5,0,13.1,0,13.7,0,9.9,0
2005/1/2,1:00,2.5,0,62,0,9.8,0,56.8,0,13.1,0,13.7,0,9.7,0
2005/1/2,1:15,2.2,0,62,0,8.8,0,65.4,0,13,0,13.7,0,10,0
2005/1/2,1:30,1.8,0,62,0,8.1,0,67.8,0,13,0,13.6,0,10.1,0
2005/1/2,1:45,1.5,0,62,0,7.6,0,71.2,0,13.1,0,13.4,0,9.9,0
2005/1/2,2:00,1.4,0,62,0,6.9,0,72.9,0,13.1,0,13,0,9.7,0
2005/1/2,2:15,1.1,0,62,0,6.6,0,73.6,0,13.1,0,12.8,0,9.5,0
2005/1/2,2:30,1,0,63,0,6.4,0,74.4,0,13,0,12.6,0,9.4,0
2005/1/2,2:45,0.9,0,63,0,5.9,0,75,0,13,0,12.3,0,9.2,0
2005/1/2,3:00,0.8,0,63,0,5.8,0,75.8,0,13,0,11.9,0,9,0
2005/1/2,3:15,0.7,0,63,0,5.5,0,75.4,0,12.9,0,11.7,0,8.8,0
2005/1/2,3:30,0.7,0,63,0,5.3,0,76.2,0,12.8,0,11.3,0,8.6,0
2005/1/2,3:45,0.9,0,63,0,5.1,0,76.2,0,12.8,0,11,0,8.4,0
2005/1/2,4:00,0.7,0,63,0,5,0,76.5,0,11.8,0,10.7,0,8.3,0
2005/1/2,4:15,0.9,0,63,0,4.9,0,77,0,11.7,0,10.4,0,8.2,0
2005/1/2,4:30,1.1,0,63,0,4.9,0,77.1,0,11.7,0,10.2,0,8,0
2005/1/2,4:45,1.2,0,62,0,4.9,0,76.7,0,11.7,0,9.9,0,7.8,0
2005/1/2,5:00,1.3,0,62,0,5,0,75.6,0,11.6,0,9.7,0,7.7,0
2005/1/2,5:15,1.3,0,62,0,5,0,75,0,11.6,0,9.6,0,7.5,0
2005/1/2,5:30,1.4,0,62,0,5,0,74.7,0,11.6,0,9.4,0,7.4,0
2005/1/2,5:45,1.4,0,62,0,4.9,0,74.1,0,11.5,0,9.3,0,7.3,0
2005/1/2,6:00,1.5,0,62,0,4.8,0,74.3,0,11.5,0,9.1,0,7.2,0
2005/1/2,6:15,1.6,0,62,0,4.8,0,73.9,0,11.4,0,9,0,7.2,0
2005/1/2,6:30,1.5,0,62,0,4.8,0,73.8,0,11.4,0,8.9,0,7.1,0
2005/1/2,6:45,1.2,0,62,0,4.8,0,73,0,11.3,0,8.7,0,7.1,0
2005/1/2,7:00,1.1,0,62,0,4.5,0,74.2,0,11.3,0,8.6,0,7,0
2005/1/2,7:15,1,0,63,0,4.2,0,74.8,0,11.2,0,8.5,0,6.9,0
2005/1/2,7:30,0.9,0,63,0,4,0,75.7,0,11.2,0,8.4,0,6.9,0
2005/1/2,7:45,0.8,0,63,0,4.1,0,75.2,0,11.1,0,8.3,0,6.8,0
2005/1/2,8:00,1,0,63,0,4.7,0,75.2,0,11.1,0,8.1,0,6.7,0
2005/1/2,8:15,1.4,0,62,0,7.1,0,78.5,0,11,0,8,0,6.6,0
2005/1/2,8:30,1.7,0,62,0,6.9,0,74.1,0,11,0,7.8,0,6.6,0
2005/1/2,8:45,2.1,0,62,0,7.4,0,72.1,0,10.9,0,7.7,0,6.5,0
2005/1/2,9:00,2.8,0,62,0,7.8,0,69.9,0,10.8,0,8.7,0,5.9,0
2005/1/2,9:15,3.3,0,62,0,8.6,0,68.1,0,11.6,0,8.9,0,4.4,0
2005/1/2,9:30,3.6,0,62,0,9.1,0,65.3,0,11.5,0,9.8,0,4.2,0
2005/1/2,9:45,4.1,0,61,0,10.7,0,58.5,0,11.7,0,9.8,0,4.1,0
2005/1/2,10:00,4.3,0,61,0,11.3,0,57.4,0,11.6,0,9.8,0,4.1,0
2005/1/2,10:15,4.4,0,61,0,10,0,59.2,0,12.1,0,9.9,0,4.6,0
2005/1/2,10:30,4.7,0,61,0,9.8,0,59.7,0,11.9,0,10.2,0,5.6,0
2005/1/2,10:45,4.7,0,61,0,9.7,0,59.7,0,11.4,0,10.4,0,6.4,0
2005/1/2,11:00,4.4,0,61,0,9.2,0,59.7,0,11.9,0,10.4,0,6.6,0
2005/1/2,11:15,4.4,0,61,0,8.7,0,60.8,0,11.8,0,10.3,0,6.8,0
2005/1/2,11:30,4.4,0,61,0,8.2,0,62.2,0,11.8,0,10.2,0,7,0
2005/1/2,11:45,4.4,0,61,0,8,0,62.7,0,11.7,0,10.2,0,7.1,0
2005/1/2,12:00,4.8,0,61,0,7.8,0,62.9,0,11.7,0,10,0,7.1,0
2005/1/2,12:15,4.9,0,61,0,7.8,0,62.7,0,11.6,0,9.8,0,7.1,0
2005/1/2,12:30,5.2,0,61,0,7.8,0,62.5,0,11.6,0,9.7,0,7.1,0
2005/1/2,12:45,5.4,0,61,0,7.9,0,62.1,0,11.5,0,9.6,0,7.1,0
2005/1/2,13:00,5.8,0,61,0,8,0,61.1,0,11.4,0,9.5,0,7.1,0
2005/1/2,13:15,6.2,0,60,0,8.1,0,61.1,0,11.4,0,9.5,0,7.2,0
2005/1/2,13:30,6.7,0,60,0,8.7,0,58,0,11.3,0,9.4,0,7.2,0
2005/1/2,13:45,7.4,0,60,0,9.1,0,57.1,0,11.3,0,9.4,0,7.2,0
2005/1/2,14:00,7.8,0,60,0,9.8,0,55.3,0,11.2,0,9.3,0,7.3,0
2005/1/2,14:15,7.7,0,60,0,10.6,0,53.2,0,11.2,0,9.4,0,7.4,0
2005/1/2,14:30,7.8,0,60,0,10.3,0,53.2,0,11.1,0,9.5,0,7.5,0
2005/1/2,14:45,7.8,0,60,0,9.9,0,53.7,0,11.1,0,9.5,0,7.6,0
2005/1/2,15:00,7.5,0,60,0,9.9,0,53.6,0,11,0,9.7,0,7.9,0
2005/1/2,15:15,7.2,0,60,0,9.9,0,53.7,0,11,0,9.8,0,8,0
2005/1/2,15:30,7.1,0,60,0,9.4,0,54.8,0,11,0,9.7,0,8,0
2005/1/2,15:45,6.9,0,60,0,9.2,0,56.2,0,10.9,0,9.8,0,8.1,0
2005/1/2,16:00,7,0,60,0,8.9,0,56.7,0,10.9,0,9.8,0,8.1,0
2005/1/2,16:15,6.7,0,60,0,8.9,0,57.4,0,10.9,0,9.8,0,8.2,0
2005/1/2,16:30,6.7,0,60,0,8.5,0,57.7,0,10.8,0,9.7,0,8.2,0
2005/1/2,16:45,6.6,0,60,0,8.1,0,60.2,0,10.8,0,9.7,0,8.1,0
2005/1/2,17:00,6.5,0,60,0,8,0,60.2,0,10.8,0,9.6,0,8.1,0
2005/1/2,17:15,6.3,0,60,0,8,0,60.8,0,10.7,0,9.6,0,8.2,0
2005/1/2,17:30,6.3,0,60,0,7.8,0,61.1,0,10.7,0,9.5,0,8.1,0
2005/1/2,17:45,6.2,0,60,0,7.6,0,61.9,0,10.7,0,9.4,0,8.1,0
2005/1/2,18:00,6.1,0,61,0,7.5,0,62,0,10.7,0,9.4,0,8,0
2005/1/2,18:15,6.1,0,61,0,7.4,0,62.5,0,10.6,0,9.3,0,8,0
2005/1/2,18:30,6.1,0,61,0,7.4,0,62.4,0,10.6,0,9.2,0,8,0
2005/1/2,18:45,6.1,0,60,0,7.4,0,62.5,0,10.6,0,9.1,0,7.9,0
2005/1/2,19:00,6.1,0,60,0,7.3,0,62.5,0,10.6,0,9.1,0,7.9,0
2005/1/2,19:15,6.1,0,60,0,7.3,0,62.5,0,10.5,0,9,0,7.9,0
2005/1/2,19:30,6,0,61,0,7.2,0,62.4,0,10.5,0,8.9,0,7.9,0
2005/1/2,19:45,5.9,0,61,0,7.2,0,62.7,0,10.5,0,8.9,0,7.9,0
2005/1/2,20:00,5.8,0,61,0,7.2,0,62.5,0,10.5,0,8.8,0,7.8,0
2005/1/2,20:15,5.7,0,61,0,7,0,62.9,0,10.4,0,8.8,0,7.8,0
2005/1/2,20:30,5.6,0,61,0,7,0,63,0,10.4,0,8.7,0,7.8,0
2005/1/2,20:45,5.5,0,61,0,6.9,0,63.2,0,10.4,0,8.7,0,7.8,0
2005/1/2,21:00,5.4,0,61,0,6.8,0,63.3,0,10.4,0,8.6,0,7.8,0
2005/1/2,21:15,5.3,0,61,0,6.7,0,63.6,0,10.4,0,8.6,0,7.8,0
2005/1/2,21:30,5.5,0,61,0,6.7,0,63.7,0,10.3,0,8.5,0,7.8,0
2005/1/2,21:45,5.3,0,61,0,6.7,0,63.5,0,10.3,0,8.5,0,7.7,0
2005/1/2,22:00,5.4,0,61,0,6.6,0,63.5,0,10.3,0,8.4,0,7.7,0
2005/1/2,22:15,5.4,0,61,0,6.5,0,64,0,10.3,0,8.4,0,7.7,0
2005/1/2,22:30,5.5,0,61,0,6.6,0,63.7,0,10.3,0,8.3,0,7.7,0
2005/1/2,22:45,5.5,0,61,0,9.9,0,74,0,10.2,0,8.3,0,7.7,0
2005/1/2,23:00,5.6,0,61,0,12.3,0,66.2,0,10.2,0,8.3,0,7.7,0
2005/1/2,23:15,5.6,0,61,0,12.4,0,60.7,0,10.2,0,8.2,0,7.6,0
2005/1/2,23:30,5.7,0,61,0,11.6,0,62.1,0,10.9,0,8.8,0,7.6,0
2005/1/2,23:45,5.8,0,61,0,12.1,0,70.9,0,10.8,0,10.3,0,7.6,0
2005/1/3,0:00,5.8,0,61,0,12.2,0,72.8,0,10.8,0,11.3,0,7.7,0
2005/1/3,0:15,5.8,0,61,0,12.6,0,75.7,0,10.8,0,11.4,0,7.7,0
2005/1/3,0:30,5.7,0,61,0,12.6,0,76.9,0,10.8,0,12.3,0,8.2,0
2005/1/3,0:45,5.7,0,61,0,10.4,0,69.3,0,10.9,0,12.7,0,8.4,0
2005/1/3,1:00,5.7,0,61,0,9.6,0,66.1,0,10.8,0,13.2,0,8.7,0
2005/1/3,1:15,5.7,0,61,0,9.1,0,65.1,0,10.8,0,13.6,0,9.1,0
2005/1/3,1:30,5.6,0,61,0,8.7,0,64.3,0,10.8,0,12.9,0,8.9,0
2005/1/3,1:45,5.5,0,61,0,8.5,0,66.9,0,10.7,0,12.2,0,8.8,0
2005/1/3,2:00,5.5,0,61,0,8.4,0,68.7,0,10.7,0,11.7,0,8.8,0
2005/1/3,2:15,5.5,0,61,0,8.2,0,69.4,0,10.7,0,11.3,0,9,0
2005/1/3,2:30,5.5,0,61,0,8.1,0,70.2,0,10.7,0,11.1,0,9.1,0
2005/1/3,2:45,5.5,0,61,0,8.1,0,70.8,0,10.7,0,11.1,0,9,0
2005/1/3,3:00,5.3,0,61,0,8.1,0,71.7,0,10.7,0,10.9,0,8.9,0
2005/1/3,3:15,5.3,0,61,0,8,0,72.4,0,10.7,0,10.8,0,8.9,0
2005/1/3,3:30,5.3,0,61,0,7.8,0,73.4,0,10.6,0,10.7,0,8.8,0
2005/1/3,3:45,5.3,0,61,0,7.7,0,71.9,0,10.6,0,10.6,0,8.8,0
2005/1/3,4:00,5.5,0,61,0,7.5,0,71,0,10.6,0,10.5,0,8.7,0
2005/1/3,4:15,5.4,0,61,0,7.5,0,70.6,0,10.6,0,10.4,0,8.7,0
2005/1/3,4:30,5.6,0,61,0,7.5,0,69.7,0,11.1,0,10.3,0,8.6,0
2005/1/3,4:45,5.7,0,61,0,7.5,0,69.1,0,11.1,0,10.1,0,8.5,0
2005/1/3,5:00,5.9,0,61,0,7.6,0,68.2,0,11.1,0,10,0,8.5,0
2005/1/3,5:15,6.1,0,61,0,7.6,0,67.6,0,11,0,9.9,0,8.5,0
2005/1/3,5:30,6.1,0,61,0,7.6,0,67,0,11,0,9.8,0,8.4,0
2005/1/3,5:45,6.1,0,61,0,7.7,0,66.5,0,11,0,9.7,0,8.4,0
2005/1/3,6:00,6.1,0,60,0,7.7,0,66.2,0,11,0,9.7,0,8.4,0
2005/1/3,6:15,6.2,0,60,0,7.7,0,66.2,0,11,0,9.6,0,8.4,0
2005/1/3,6:30,6.3,0,61,0,7.7,0,66.3,0,10.9,0,9.6,0,8.4,0
2005/1/3,6:45,6.3,0,60,0,7.7,0,65.8,0,10.9,0,9.5,0,8.4,0
2005/1/3,7:00,6.4,0,60,0,7.7,0,65.6,0,10.9,0,9.4,0,8.4,0
2005/1/3,7:15,6.4,0,60,0,7.7,0,65.2,0,10.9,0,9.4,0,8.3,0
2005/1/3,7:30,6.2,0,61,0,7.7,0,65.1,0,10.9,0,9.4,0,8.3,0
2005/1/3,7:45,6.2,0,60,0,7.6,0,65.1,0,10.8,0,9.3,0,8.3,0
2005/1/3,8:00,6.4,0,60,0,7.4,0,65.5,0,10.6,0,9.3,0,8.3,0
2005/1/3,8:15,6.7,0,60,0,7.5,0,65.2,0,10.6,0,9.2,0,8.3,0
2005/1/3,8:30,6.9,0,60,0,7.7,0,64.2,0,10.6,0,9.2,0,8.3,0
2005/1/3,8:45,7.2,0,60,0,8.1,0,62.7,0,10.6,0,9.1,0,8.3,0
2005/1/3,9:00,7.8,0,60,0,9.6,0,67.1,0,10.6,0,9.1,0,8.3,0
2005/1/3,9:15,8.6,0,59,0,11,0,65.8,0,10.6,0,9.1,0,8.3,0
2005/1/3,9:30,9,0,59,0,13.4,0,62.9,0,10.6,0,9.1,0,8.3,0
2005/1/3,9:45,9.4,0,59,0,16.2,0,52.4,0,10.6,0,9.5,0,8.4,0
2005/1/3,10:00,10.3,0,58,0,17.6,0,47.6,0,11.6,0,11.2,0,8.5,0
2005/1/3,10:15,10.9,0,58,0,18.7,0,46.3,0,11.6,0,11.6,0,8.6,0
2005/1/3,10:30,11.3,0,58,0,19.8,0,42.3,0,12.4,0,11.9,0,8.7,0
2005/1/3,10:45,11.6,0,58,0,20.8,0,39.8,0,12.3,0,12.2,0,8.7,0
2005/1/3,11:00,11.6,0,58,0,18.4,0,45.8,0,12.3,0,12.7,0,8.9,0
2005/1/3,11:15,11.4,0,58,0,17.9,0,47,0,12.2,0,13.9,0,9.1,0
2005/1/3,11:30,11.1,0,58,0,17.1,0,49.7,0,12.2,0,14.2,0,9.3,0
2005/1/3,11:45,10.8,0,58,0,15.9,0,51,0,12.2,0,14.5,0,9.5,0
2005/1/3,12:00,10.6,0,58,0,18.2,0,47.3,0,12.9,0,14.4,0,9.9,0
2005/1/3,12:15,10.6,0,58,0,19,0,45.6,0,12.9,0,14.6,0,10.1,0
2005/1/3,12:30,10.6,0,58,0,19.4,0,45.4,0,12.9,0,14.7,0,10.3,0
2005/1/3,12:45,10.7,0,58,0,19.4,0,44,0,12.8,0,14.8,0,10.4,0
2005/1/3,13:00,10.9,0,58,0,19.3,0,44.1,0,12.8,0,15.2,0,10.5,0
2005/1/3,13:15,11.3,0,58,0,19.5,0,43.4,0,12.8,0,15.6,0,10.8,0
2005/1/3,13:30,11.6,0,58,0,19.7,0,44.5,0,12.8,0,16.3,0,10.8,0
2005/1/3,13:45,11.5,0,58,0,17.7,0,46.9,0,12.8,0,16.6,0,10.9,0
2005/1/3,14:00,11.6,0,58,0,16.8,0,51.5,0,12.7,0,16.4,0,10.9,0
2005/1/3,14:15,11.3,0,58,0,16.3,0,54.4,0,12.7,0,16.9,0,11.1,0
2005/1/3,14:30,11.3,0,58,0,16,0,55.4,0,12.7,0,16.8,0,11.4,0
2005/1/3,14:45,11.1,0,58,0,15.7,0,57.2,0,12.8,0,16.7,0,11.6,0
2005/1/3,15:00,11.1,0,58,0,15.1,0,59.1,0,12.8,0,16.4,0,11.8,0
2005/1/3,15:15,11,0,58,0,15.2,0,60.3,0,12.8,0,16.2,0,11.8,0
2005/1/3,15:30,10.6,0,58,0,14.8,0,61.3,0,12.1,0,16.2,0,12,0
2005/1/3,15:45,10.3,0,58,0,14.4,0,62.6,0,12.2,0,16.1,0,12,0
2005/1/3,16:00,10.1,0,59,0,14.2,0,64.9,0,12,0,16,0,12.1,0
2005/1/3,16:15,10.1,0,59,0,13.7,0,65.9,0,12,0,15.9,0,12.3,0
2005/1/3,16:30,10.1,0,59,0,13.4,0,66.2,0,12,0,15.9,0,12.6,0
2005/1/3,16:45,10,0,59,0,13.1,0,66.7,0,12.3,0,15.9,0,12.6,0
2005/1/3,17:00,10.1,0,59,0,12.9,0,66.7,0,12.3,0,15.8,0,12.6,0
2005/1/3,17:15,10,0,59,0,12.7,0,67,0,12.3,0,15.6,0,12.5,0
2005/1/3,17:30,9.7,0,59,0,12.5,0,66.9,0,12.3,0,15.4,0,12.4,0
2005/1/3,17:45,9.4,0,59,0,12.2,0,67.5,0,12.3,0,15.1,0,12.3,0
2005/1/3,18:00,9.2,0,59,0,11.8,0,68.6,0,12.3,0,14.9,0,12.3,0
2005/1/3,18:15,9.2,0,59,0,11.5,0,69.1,0,12.3,0,14.8,0,12.2,0
2005/1/3,18:30,8.9,0,59,0,11.2,0,70,0,12.3,0,14.6,0,12.1,0
2005/1/3,18:45,8.9,0,59,0,11.1,0,70.2,0,12.3,0,14.4,0,12,0
2005/1/3,19:00,8.9,0,59,0,10.9,0,70.1,0,12.3,0,14.2,0,11.9,0
2005/1/3,19:15,8.8,0,59,0,12.1,0,75.1,0,12.3,0,14.1,0,11.8,0
2005/1/3,19:30,8.7,0,59,0,12.9,0,76,0,12.3,0,13.9,0,11.7,0
2005/1/3,19:45,8.7,0,59,0,13.4,0,78,0,12.4,0,13.8,0,11.7,0
2005/1/3,20:00,8.6,0,60,0,13.8,0,79.8,0,12.4,0,13.8,0,11.6,0
2005/1/3,20:15,8.6,0,60,0,14.1,0,81.7,0,12.4,0,14.4,0,11.6,0
2005/1/3,20:30,8.9,0,59,0,13.9,0,80.5,0,12.4,0,14.7,0,11.6,0
2005/1/3,20:45,9.2,0,59,0,14.4,0,80.5,0,12.4,0,15.1,0,11.6,0
2005/1/3,21:00,9.3,0,59,0,14.8,0,81,0,12.4,0,15.5,0,11.6,0
2005/1/3,21:15,9.4,0,59,0,14.6,0,80.9,0,11.8,0,15.6,0,11.8,0
2005/1/3,21:30,9.2,0,59,0,13.7,0,79.5,0,11.8,0,15.9,0,11.7,0
2005/1/3,21:45,9.2,0,59,0,13.3,0,78,0,11.8,0,16.3,0,11.8,0
2005/1/3,22:00,9.2,0,59,0,13.3,0,78.1,0,11.9,0,16.5,0,11.8,0
2005/1/3,22:15,9.1,0,59,0,13.1,0,77.2,0,11.9,0,15.9,0,11.8,0
2005/1/3,22:30,9,0,59,0,12.6,0,75.8,0,11.9,0,15.6,0,11.8,0
2005/1/3,22:45,9.1,0,59,0,12.3,0,76.2,0,11.9,0,15.4,0,11.8,0
2005/1/3,23:00,9.1,0,59,0,12.2,0,75.1,0,11.9,0,15.2,0,11.8,0
2005/1/3,23:15,9,0,59,0,12.2,0,74.4,0,11.8,0,14.6,0,11.9,0
2005/1/3,23:30,9.1,0,59,0,12.4,0,74.9,0,11.8,0,14.4,0,11.8,0
2005/1/3,23:45,9.1,0,59,0,12.5,0,77.3,0,11.8,0,14.7,0,11.7,0
2005/1/4,0:00,9.1,0,59,0,12.4,0,78.2,0,11.8,0,14.9,0,11.6,0
2005/1/4,0:15,9.1,0,59,0,12,0,75.9,0,11.8,0,14.6,0,11.6,0
2005/1/4,0:30,9,0,59,0,11.9,0,76.7,0,11.9,0,14.7,0,11.6,0
2005/1/4,0:45,8.8,0,59,0,11.7,0,75.5,0,11.9,0,14.6,0,11.7,0
2005/1/4,1:00,8.9,0,59,0,11.7,0,77,0,12,0,14.5,0,11.7,0
2005/1/4,1:15,9.1,0,59,0,11.8,0,79.1,0,12,0,14.2,0,11.7,0
2005/1/4,1:30,9.1,0,59,0,11.7,0,79.7,0,12,0,14,0,11.8,0
2005/1/4,1:45,9.2,0,59,0,11.5,0,77.9,0,12.1,0,13.8,0,12.2,0
2005/1/4,2:00,9.4,0,59,0,11.7,0,78.7,0,12.4,0,13.9,0,12.4,0
2005/1/4,2:15,9.4,0,59,0,11.7,0,80,0,12.4,0,13.9,0,12.3,0
2005/1/4,2:30,9.3,0,59,0,11.6,0,78.3,0,12.7,0,13.8,0,12.7,0
2005/1/4,2:45,9.2,0,59,0,11.5,0,77.9,0,12.7,0,13.8,0,12.7,0
2005/1/4,3:00,9.1,0,59,0,11.3,0,77.6,0,12.7,0,13.7,0,13.2,0
2005/1/4,3:15,8.9,0,59,0,11.2,0,77.4,0,12.7,0,13.5,0,13.1,0
2005/1/4,3:30,8.8,0,59,0,11,0,77.3,0,12.7,0,13.5,0,13,0
2005/1/4,3:45,8.6,0,59,0,10.7,0,78,0,12.7,0,13.4,0,12.9,0
2005/1/4,4:00,8.6,0,59,0,10.5,0,78.3,0,12.8,0,13.4,0,12.9,0
2005/1/4,4:15,8.6,0,59,0,10.3,0,78.6,0,12.8,0,13.3,0,12.8,0
2005/1/4,4:30,8.7,0,59,0,10.2,0,78.5,0,12.8,0,13.2,0,12.7,0
2005/1/4,4:45,8.6,0,59,0,10.2,0,78,0,12.8,0,13.1,0,12.6,0
2005/1/4,5:00,8.6,0,59,0,10.1,0,77.5,0,12.8,0,13,0,12.5,0
2005/1/4,5:15,8.4,0,60,0,10,0,77.5,0,12.8,0,12.9,0,12.4,0
2005/1/4,5:30,8.4,0,59,0,10,0,77.6,0,12.8,0,12.8,0,12.4,0
2005/1/4,5:45,8.3,0,60,0,9.9,0,77.8,0,12.8,0,12.7,0,12.3,0
2005/1/4,6:00,8.2,0,60,0,9.8,0,78.2,0,12.8,0,12.6,0,12.2,0
2005/1/4,6:15,8.2,0,60,0,9.7,0,77.9,0,12.8,0,12.6,0,12.1,0
2005/1/4,6:30,8.1,0,60,0,9.6,0,78,0,12.8,0,12.5,0,12,0
2005/1/4,6:45,8.1,0,60,0,11.7,0,84.2,0,12.8,0,12.4,0,12,0
2005/1/4,7:00,8.1,0,60,0,13.1,0,79.3,0,12.8,0,12.3,0,11.9,0
2005/1/4,7:15,8.3,0,60,0,13.2,0,77.9,0,12.1,0,12.3,0,11.8,0
2005/1/4,7:30,8.1,0,60,0,12.5,0,78.3,0,12.1,0,12.7,0,11.8,0
2005/1/4,7:45,8.1,0,60,0,10.9,0,69.2,0,12.1,0,13.8,0,12.2,0
2005/1/4,8:00,8.1,0,60,0,15.7,0,61.5,0,12.5,0,14.6,0,12.3,0
2005/1/4,8:15,8.2,0,60,0,16.7,0,62.2,0,12.5,0,14.2,0,12.3,0
2005/1/4,8:30,8.4,0,59,0,17.6,0,60.5,0,12.6,0,13.7,0,12.2,0
2005/1/4,8:45,8.6,0,59,0,17.8,0,59.4,0,12.6,0,13.8,0,12.9,0
2005/1/4,9:00,8.6,0,59,0,14.5,0,62.8,0,12.6,0,14.4,0,13.3,0
2005/1/4,9:15,8.6,0,59,0,13.6,0,67.1,0,12.6,0,15,0,12.7,0
2005/1/4,9:30,8.7,0,59,0,12.9,0,69.2,0,12.6,0,15.6,0,11.6,0
2005/1/4,9:45,8.7,0,59,0,13.9,0,73.2,0,12.6,0,15.4,0,11.3,0
2005/1/4,10:00,8.7,0,59,0,14.3,0,74.4,0,12.6,0,14.9,0,11.3,0
2005/1/4,10:15,8.9,0,59,0,14.6,0,74.6,0,12.3,0,14.6,0,11.2,0
2005/1/4,10:30,8.9,0,59,0,14.9,0,74.9,0,12.3,0,14.8,0,11,0
2005/1/4,10:45,8.9,0,59,0,15.5,0,74.3,0,12.3,0,15.4,0,11.1,0
2005/1/4,11:00,8.9,0,59,0,15.6,0,74.6,0,12.3,0,15.7,0,11,0
2005/1/4,11:15,8.8,0,59,0,14.5,0,74.1,0,12.3,0,16.1,0,11,0
2005/1/4,11:30,8.9,0,59,0,14,0,72.8,0,12.3,0,16.5,0,11.1,0
2005/1/4,11:45,9.3,0,59,0,13.7,0,72.1,0,12.3,0,16.8,0,11,0
2005/1/4,12:00,9.4,0,59,0,14.2,0,67.9,0,12.2,0,16.6,0,11.1,0
2005/1/4,12:15,9.7,0,59,0,14.8,0,66,0,12.2,0,16.2,0,11,0
2005/1/4,12:30,10.1,0,59,0,14.5,0,64.5,0,12.2,0,15.9,0,11,0
2005/1/4,12:45,10.2,0,58,0,15.3,0,62.2,0,12.2,0,15.8,0,11.1,0
2005/1/4,13:00,10.5,0,58,0,15.7,0,60.8,0,12.2,0,15.7,0,11.2,0
2005/1/4,13:15,10.3,0,58,0,16.2,0,59.7,0,12.2,0,15.6,0,11.2,0
2005/1/4,13:30,9.9,0,59,0,16.5,0,58.6,0,12.2,0,15.5,0,11.2,0
2005/1/4,13:45,9.6,0,59,0,16.5,0,57.8,0,12.2,0,15.5,0,11.3,0
2005/1/4,14:00,9.8,0,59,0,15.9,0,58.4,0,12.3,0,15.5,0,11.3,0
2005/1/4,14:15,9.4,0,59,0,16.5,0,55.5,0,12.3,0,15.6,0,11.5,0
2005/1/4,14:30,9.1,0,59,0,16.6,0,53.3,0,12.3,0,15.7,0,11.5,0
2005/1/4,14:45,8.8,0,59,0,16.4,0,51.9,0,11.9,0,15.7,0,11.5,0
2005/1/4,15:00,8.3,0,59,0,15.1,0,50.7,0,11.9,0,15.9,0,11.2,0
2005/1/4,15:15,8.1,0,60,0,13.7,0,51.9,0,11.9,0,16,0,11,0
2005/1/4,15:30,7.8,0,60,0,12.9,0,53.3,0,12,0,16.2,0,10.7,0
2005/1/4,15:45,7.7,0,60,0,13.1,0,56.3,0,12,0,16,0,10.4,0
2005/1/4,16:00,7.5,0,60,0,12.8,0,58.8,0,12,0,15.4,0,9.9,0
2005/1/4,16:15,7.1,0,60,0,12.6,0,60.4,0,12,0,14.8,0,9.6,0
2005/1/4,16:30,6.7,0,60,0,12.3,0,60.8,0,12,0,14.9,0,9.7,0
2005/1/4,16:45,6.4,0,60,0,11.7,0,64.1,0,12.1,0,15.1,0,9.9,0
2005/1/4,17:00,6.1,0,60,0,11.1,0,65.8,0,12.1,0,15,0,9.7,0
2005/1/4,17:15,5.8,0,61,0,10.5,0,69.1,0,12.1,0,14.9,0,9.7,0
2005/1/4,17:30,5.7,0,61,0,9.9,0,71,0,12.1,0,14.7,0,9.6,0
2005/1/4,17:45,5.6,0,61,0,9.7,0,70.8,0,12.2,0,14.6,0,9.6,0
2005/1/4,18:00,5.5,0,61,0,9.6,0,70.9,0,12.2,0,14.4,0,9.3,0
2005/1/4,18:15,5.3,0,61,0,9.3,0,71.4,0,11.8,0,14.2,0,9.3,0
2005/1/4,18:30,5.3,0,61,0,9.3,0,70.5,0,12.2,0,13.9,0,9.4,0
2005/1/4,18:45,5.3,0,61,0,8.9,0,71.5,0,12.2,0,13.7,0,9.2,0
2005/1/4,19:00,5.3,0,61,0,8.8,0,71.6,0,12.2,0,13.5,0,9,0
2005/1/4,19:15,5.3,0,61,0,12.8,0,64.2,0,12.3,0,13.3,0,8.8,0
2005/1/4,19:30,5.5,0,61,0,14.5,0,60.4,0,12.3,0,13.1,0,8.7,0
2005/1/4,19:45,5.7,0,61,0,15.3,0,59.9,0,12.3,0,12.9,0,8.6,0
2005/1/4,20:00,5.7,0,61,0,12.9,0,61.9,0,12.5,0,13.4,0,8.6,0
2005/1/4,20:15,5.7,0,61,0,14.5,0,57.7,0,12.5,0,14,0,8.4,0
2005/1/4,20:30,5.7,0,61,0,14.8,0,52.7,0,12.6,0,14.7,0,8.3,0
2005/1/4,20:45,5.6,0,61,0,14.9,0,52.5,0,12.4,0,14.7,0,8.6,0
2005/1/4,21:00,5.5,0,61,0,14.8,0,52.4,0,12.4,0,14.8,0,8.6,0
2005/1/4,21:15,5.5,0,61,0,14.8,0,48.3,0,12.4,0,15.6,0,7.9,0
2005/1/4,21:30,5.4,0,61,0,14.7,0,48.2,0,12.5,0,15.7,0,7.6,0
2005/1/4,21:45,5.3,0,61,0,14.7,0,48.5,0,12.5,0,15.3,0,7.4,0
2005/1/4,22:00,5.2,0,61,0,14.6,0,51.7,0,12.5,0,14.9,0,7.2,0
2005/1/4,22:15,5.1,0,61,0,14.6,0,52.2,0,12.4,0,14.8,0,7.1,0
2005/1/4,22:30,4.9,0,61,0,14.5,0,50.4,0,12.5,0,14.7,0,7.7,0
2005/1/4,22:45,4.9,0,61,0,14.3,0,50.9,0,12.5,0,14.5,0,8.8,0
2005/1/4,23:00,4.8,0,61,0,14.2,0,49.3,0,12.4,0,14.4,0,9.1,0
2005/1/4,23:15,4.8,0,61,0,14.3,0,49.6,0,12.4,0,14.3,0,9.2,0
2005/1/4,23:30,4.7,0,61,0,10.9,0,51.6,0,12.4,0,14.1,0,9.3,0
2005/1/4,23:45,4.7,0,61,0,9.9,0,53.9,0,12.4,0,13.9,0,9.5,0
2005/1/5,0:00,4.9,0,61,0,9.4,0,55.9,0,12.4,0,13.8,0,9.8,0
2005/1/5,0:15,5.1,0,61,0,9.2,0,55.8,0,12.2,0,13.5,0,9.7,0
2005/1/5,0:30,5.2,0,61,0,9,0,59.4,0,12.2,0,12.9,0,9.6,0
2005/1/5,0:45,5.2,0,61,0,9.3,0,64.2,0,12.1,0,12.4,0,9.6,0
2005/1/5,1:00,5,0,61,0,9.1,0,66.2,0,12.2,0,12.1,0,9.7,0
2005/1/5,1:15,4.8,0,61,0,8.8,0,67.2,0,12.7,0,11.8,0,9.9,0
2005/1/5,1:30,4.8,0,61,0,8.5,0,68.7,0,12.7,0,12.1,0,9.9,0
2005/1/5,1:45,4.9,0,61,0,8.3,0,68.6,0,12.6,0,12.1,0,10.3,0
2005/1/5,2:00,5,0,61,0,8.3,0,68.2,0,12.6,0,12,0,10.3,0
2005/1/5,2:15,5.2,0,61,0,8.4,0,67.8,0,12.6,0,11.9,0,10.2,0
2005/1/5,2:30,4.8,0,61,0,8.4,0,67.8,0,12.6,0,11.8,0,10.1,0
2005/1/5,2:45,4.7,0,61,0,8,0,68.3,0,12.6,0,11.7,0,10,0
2005/1/5,3:00,4.8,0,61,0,7.9,0,68.5,0,12.6,0,11.6,0,10,0
2005/1/5,3:15,4.8,0,61,0,7.9,0,68.7,0,12.6,0,11.4,0,9.9,0
2005/1/5,3:30,4.4,0,61,0,7.8,0,68.4,0,12.6,0,11.1,0,9.9,0
2005/1/5,3:45,4.4,0,61,0,7.5,0,69.4,0,12.6,0,11,0,9.8,0
2005/1/5,4:00,4.4,0,61,0,7.3,0,70,0,12.5,0,10.9,0,9.8,0
2005/1/5,4:15,4.5,0,61,0,7.5,0,69.3,0,12.5,0,10.8,0,9.8,0